owner,sensor,date,latitude,longitude,vertical_datum,sea_water_practical_salinity,qcFlag 
TCOON,ioos:station:TCOON:043:1,2013-12-09T15:00:00Z,27.8838,-97.5332,0.0,26.1,1111122 
TCOON,ioos:station:TCOON:043:1,2013-12-09T16:00:00Z,27.8838,-97.5332,0.0,25.2,1111122 
TCOON,ioos:station:TCOON:043:1,2013-12-09T18:30:00Z,27.8838,-97.5332,0.0,25.6,1111122 
TCOON,ioos:station:TCOON:043:1,2013-12-09T19:30:00Z,27.8838,-97.5332,0.0,24.6,1111122 
TCOON,ioos:station:TCOON:043:1,2013-12-09T20:30:00Z,27.8838,-97.5332,0.0,26.4,1111122 
TCOON,ioos:station:TCOON:043:1,2013-12-09T21:30:00Z,27.8838,-97.5332,0.0,26.1,1111122 
TCOON,ioos:station:TCOON:043:1,2013-12-10T00:00:00Z,27.8838,-97.5332,0.0,24.8,1111122 
TCOON,ioos:station:TCOON:043:1,2013-12-10T01:00:00Z,27.8838,-97.5332,0.0,25.1,1111122 
TCOON,ioos:station:TCOON:043:1,2013-12-10T01:30:00Z,27.8838,-97.5332,0.0,24.2,1111122 
TCOON,ioos:station:TCOON:043:1,2013-12-10T02:30:00Z,27.8838,-97.5332,0.0,23.5,1111122 
TCOON,ioos:station:TCOON:043:1,2013-12-10T03:30:00Z,27.8838,-97.5332,0.0,24.4,1111122 
TCOON,ioos:station:TCOON:043:1,2013-12-10T04:30:00Z,27.8838,-97.5332,0.0,22.0,1111122 
TCOON,ioos:station:TCOON:043:1,2013-12-10T05:30:00Z,27.8838,-97.5332,0.0,17.5,1111122 
TCOON,ioos:station:TCOON:043:1,2013-12-10T06:00:00Z,27.8838,-97.5332,0.0,14.8,1111122 
TCOON,ioos:station:TCOON:043:1,2013-12-10T08:30:00Z,27.8838,-97.5332,0.0,14.6,1111122 
TCOON,ioos:station:TCOON:043:1,2013-12-10T09:30:00Z,27.8838,-97.5332,0.0,13.8,1111122 
TCOON,ioos:station:TCOON:043:1,2013-12-10T11:00:00Z,27.8838,-97.5332,0.0,11.5,1111122 
TCOON,ioos:station:TCOON:043:1,2013-12-10T12:30:00Z,27.8838,-97.5332,0.0,10.9,1111122 
TCOON,ioos:station:TCOON:043:1,2013-12-10T14:30:00Z,27.8838,-97.5332,0.0,11.0,1111122 
TCOON,ioos:station:TCOON:043:1,2013-12-11T02:00:00Z,27.8838,-97.5332,0.0,6.9,1111122 
TCOON,ioos:station:TCOON:043:1,2013-12-11T04:30:00Z,27.8838,-97.5332,0.0,7.3,1111122 
TCOON,ioos:station:TCOON:043:1,2013-12-11T10:00:00Z,27.8838,-97.5332,0.0,6.8,1111122 
TCOON,ioos:station:TCOON:043:1,2013-12-11T13:00:00Z,27.8838,-97.5332,0.0,8.6,1111122 
TCOON,ioos:station:TCOON:043:1,2013-12-11T18:30:00Z,27.8838,-97.5332,0.0,10.5,1111122 
TCOON,ioos:station:TCOON:043:1,2013-12-11T19:30:00Z,27.8838,-97.5332,0.0,9.7,1111122 
TCOON,ioos:station:TCOON:043:1,2013-12-11T22:00:00Z,27.8838,-97.5332,0.0,9.4,1111122 
TCOON,ioos:station:TCOON:043:1,2013-12-12T03:30:00Z,27.8838,-97.5332,0.0,23.7,1111122 
TCOON,ioos:station:TCOON:043:1,2013-12-12T15:30:00Z,27.8838,-97.5332,0.0,21.3,1111122 
TCOON,ioos:station:TCOON:043:1,2013-12-12T17:00:00Z,27.8838,-97.5332,0.0,23.2,1111122 
TCOON,ioos:station:TCOON:043:1,2013-12-12T17:30:00Z,27.8838,-97.5332,0.0,21.7,1111122 
TCOON,ioos:station:TCOON:043:1,2013-12-12T19:00:00Z,27.8838,-97.5332,0.0,21.1,1111122 
TCOON,ioos:station:TCOON:043:1,2013-12-12T19:30:00Z,27.8838,-97.5332,0.0,18.2,1111122 
TCOON,ioos:station:TCOON:043:1,2013-12-12T22:00:00Z,27.8838,-97.5332,0.0,13.0,1111122 
TCOON,ioos:station:TCOON:043:1,2013-12-12T23:30:00Z,27.8838,-97.5332,0.0,11.7,1111122 
TCOON,ioos:station:TCOON:043:1,2013-12-13T00:00:00Z,27.8838,-97.5332,0.0,11.1,1111122 
TCOON,ioos:station:TCOON:043:1,2013-12-13T02:00:00Z,27.8838,-97.5332,0.0,18.4,1111122 
TCOON,ioos:station:TCOON:043:1,2013-12-13T03:30:00Z,27.8838,-97.5332,0.0,24.0,1111122 
TCOON,ioos:station:TCOON:043:1,2013-12-13T05:30:00Z,27.8838,-97.5332,0.0,24.8,1111122 
TCOON,ioos:station:TCOON:043:1,2013-12-13T07:00:00Z,27.8838,-97.5332,0.0,24.0,1111122 
TCOON,ioos:station:TCOON:043:1,2013-12-13T07:30:00Z,27.8838,-97.5332,0.0,24.1,1111122 
TCOON,ioos:station:TCOON:043:1,2013-12-13T08:00:00Z,27.8838,-97.5332,0.0,24.8,1111122 
TCOON,ioos:station:TCOON:043:1,2013-12-13T08:30:00Z,27.8838,-97.5332,0.0,25.6,1111122 
TCOON,ioos:station:TCOON:043:1,2013-12-13T09:30:00Z,27.8838,-97.5332,0.0,24.6,1111122 
TCOON,ioos:station:TCOON:043:1,2013-12-13T10:00:00Z,27.8838,-97.5332,0.0,23.8,1111122 
TCOON,ioos:station:TCOON:043:1,2013-12-13T12:00:00Z,27.8838,-97.5332,0.0,23.8,1111122 
TCOON,ioos:station:TCOON:043:1,2013-12-13T13:00:00Z,27.8838,-97.5332,0.0,24.1,1111122 
TCOON,ioos:station:TCOON:043:1,2013-12-13T13:30:00Z,27.8838,-97.5332,0.0,24.9,1111122 
TCOON,ioos:station:TCOON:043:1,2013-12-13T14:00:00Z,27.8838,-97.5332,0.0,25.3,1111122 
TCOON,ioos:station:TCOON:043:1,2013-12-13T15:30:00Z,27.8838,-97.5332,0.0,21.9,1111122 
TCOON,ioos:station:TCOON:043:1,2013-12-13T17:00:00Z,27.8838,-97.5332,0.0,22.7,1111122 
TCOON,ioos:station:TCOON:043:1,2013-12-13T17:30:00Z,27.8838,-97.5332,0.0,21.8,1111122 
TCOON,ioos:station:TCOON:043:1,2013-12-13T19:00:00Z,27.8838,-97.5332,0.0,18.5,1111122 
TCOON,ioos:station:TCOON:043:1,2013-12-13T19:30:00Z,27.8838,-97.5332,0.0,17.6,1111122 
TCOON,ioos:station:TCOON:043:1,2013-12-13T23:00:00Z,27.8838,-97.5332,0.0,20.8,1111122 
TCOON,ioos:station:TCOON:043:1,2013-12-13T23:30:00Z,27.8838,-97.5332,0.0,23.4,1111122 
TCOON,ioos:station:TCOON:043:1,2013-12-14T01:30:00Z,27.8838,-97.5332,0.0,26.5,1111122 
TCOON,ioos:station:TCOON:043:1,2013-12-14T02:00:00Z,27.8838,-97.5332,0.0,26.8,1111122 
TCOON,ioos:station:TCOON:043:1,2013-12-14T03:00:00Z,27.8838,-97.5332,0.0,26.9,1111122 
TCOON,ioos:station:TCOON:043:1,2013-12-14T04:00:00Z,27.8838,-97.5332,0.0,27.0,1111122 
TCOON,ioos:station:TCOON:043:1,2013-12-14T05:00:00Z,27.8838,-97.5332,0.0,27.0,1111122 
TCOON,ioos:station:TCOON:043:1,2013-12-14T07:00:00Z,27.8838,-97.5332,0.0,26.7,1111122 
TCOON,ioos:station:TCOON:043:1,2013-12-14T07:30:00Z,27.8838,-97.5332,0.0,26.7,1111122 
TCOON,ioos:station:TCOON:043:1,2013-12-14T08:00:00Z,27.8838,-97.5332,0.0,26.7,1111122 
TCOON,ioos:station:TCOON:043:1,2013-12-14T08:30:00Z,27.8838,-97.5332,0.0,26.7,1111122 
TCOON,ioos:station:TCOON:043:1,2013-12-14T09:00:00Z,27.8838,-97.5332,0.0,26.7,1111122 
TCOON,ioos:station:TCOON:043:1,2013-12-14T09:30:00Z,27.8838,-97.5332,0.0,26.6,1111122 
TCOON,ioos:station:TCOON:043:1,2013-12-14T10:30:00Z,27.8838,-97.5332,0.0,26.8,1111122 
TCOON,ioos:station:TCOON:043:1,2013-12-14T11:00:00Z,27.8838,-97.5332,0.0,26.7,1111122 
TCOON,ioos:station:TCOON:043:1,2013-12-14T11:30:00Z,27.8838,-97.5332,0.0,26.5,1111122 
TCOON,ioos:station:TCOON:043:1,2013-12-14T13:30:00Z,27.8838,-97.5332,0.0,23.8,1111122 
TCOON,ioos:station:TCOON:043:1,2013-12-14T14:00:00Z,27.8838,-97.5332,0.0,25.2,1111122 
TCOON,ioos:station:TCOON:043:1,2013-12-14T14:30:00Z,27.8838,-97.5332,0.0,23.7,1111122 
TCOON,ioos:station:TCOON:043:1,2013-12-14T15:00:00Z,27.8838,-97.5332,0.0,21.4,1111122 
TCOON,ioos:station:TCOON:043:1,2013-12-14T15:30:00Z,27.8838,-97.5332,0.0,22.7,1111122 
TCOON,ioos:station:TCOON:043:1,2013-12-14T16:00:00Z,27.8838,-97.5332,0.0,23.0,1111122 
TCOON,ioos:station:TCOON:043:1,2013-12-14T17:00:00Z,27.8838,-97.5332,0.0,20.6,1111122 
TCOON,ioos:station:TCOON:043:1,2013-12-14T17:30:00Z,27.8838,-97.5332,0.0,19.9,1111122 
TCOON,ioos:station:TCOON:043:1,2013-12-14T19:00:00Z,27.8838,-97.5332,0.0,16.5,1111122 
TCOON,ioos:station:TCOON:043:1,2013-12-14T19:30:00Z,27.8838,-97.5332,0.0,14.7,1111122 
TCOON,ioos:station:TCOON:043:1,2013-12-14T20:00:00Z,27.8838,-97.5332,0.0,15.2,1111122 
TCOON,ioos:station:TCOON:043:1,2013-12-14T20:30:00Z,27.8838,-97.5332,0.0,13.5,1111122 
TCOON,ioos:station:TCOON:043:1,2013-12-14T21:00:00Z,27.8838,-97.5332,0.0,14.2,1111122 
TCOON,ioos:station:TCOON:043:1,2013-12-14T22:00:00Z,27.8838,-97.5332,0.0,14.4,1111122 
TCOON,ioos:station:TCOON:043:1,2013-12-14T22:30:00Z,27.8838,-97.5332,0.0,14.4,1111122 
TCOON,ioos:station:TCOON:043:1,2013-12-14T23:00:00Z,27.8838,-97.5332,0.0,13.0,1111122 
TCOON,ioos:station:TCOON:043:1,2013-12-15T01:00:00Z,27.8838,-97.5332,0.0,11.8,1111122 
TCOON,ioos:station:TCOON:043:1,2013-12-15T01:30:00Z,27.8838,-97.5332,0.0,10.9,1111122 
TCOON,ioos:station:TCOON:043:1,2013-12-15T04:00:00Z,27.8838,-97.5332,0.0,13.9,1111122 
TCOON,ioos:station:TCOON:043:1,2013-12-15T05:00:00Z,27.8838,-97.5332,0.0,16.4,1111122 
TCOON,ioos:station:TCOON:043:1,2013-12-15T05:30:00Z,27.8838,-97.5332,0.0,23.4,1111122 
TCOON,ioos:station:TCOON:043:1,2013-12-15T06:00:00Z,27.8838,-97.5332,0.0,27.4,1111122 
TCOON,ioos:station:TCOON:043:1,2013-12-15T06:30:00Z,27.8838,-97.5332,0.0,28.1,1111122 
TCOON,ioos:station:TCOON:043:1,2013-12-15T07:30:00Z,27.8838,-97.5332,0.0,28.5,1111122 
TCOON,ioos:station:TCOON:043:1,2013-12-15T08:30:00Z,27.8838,-97.5332,0.0,27.6,1111122 
TCOON,ioos:station:TCOON:043:1,2013-12-15T09:00:00Z,27.8838,-97.5332,0.0,26.7,1111122 
TCOON,ioos:station:TCOON:043:1,2013-12-15T09:30:00Z,27.8838,-97.5332,0.0,24.4,1111122 
TCOON,ioos:station:TCOON:043:1,2013-12-15T10:00:00Z,27.8838,-97.5332,0.0,25.2,1111122 
TCOON,ioos:station:TCOON:043:1,2013-12-15T10:30:00Z,27.8838,-97.5332,0.0,25.6,1111122 
TCOON,ioos:station:TCOON:043:1,2013-12-15T11:30:00Z,27.8838,-97.5332,0.0,18.7,1111122 
TCOON,ioos:station:TCOON:043:1,2013-12-15T13:30:00Z,27.8838,-97.5332,0.0,13.0,1111122 
TCOON,ioos:station:TCOON:043:1,2013-12-15T15:30:00Z,27.8838,-97.5332,0.0,9.9,1111122 
TCOON,ioos:station:TCOON:043:1,2013-12-15T16:00:00Z,27.8838,-97.5332,0.0,9.4,1111122 
TCOON,ioos:station:TCOON:043:1,2013-12-15T16:30:00Z,27.8838,-97.5332,0.0,10.3,1111122 
TCOON,ioos:station:TCOON:043:1,2013-12-15T17:00:00Z,27.8838,-97.5332,0.0,10.1,1111122 
TCOON,ioos:station:TCOON:043:1,2013-12-15T19:00:00Z,27.8838,-97.5332,0.0,10.8,1111122 
TCOON,ioos:station:TCOON:043:1,2013-12-15T20:00:00Z,27.8838,-97.5332,0.0,11.0,1111122 
TCOON,ioos:station:TCOON:043:1,2013-12-15T20:30:00Z,27.8838,-97.5332,0.0,10.9,1111122 
TCOON,ioos:station:TCOON:043:1,2013-12-15T21:00:00Z,27.8838,-97.5332,0.0,11.6,1111122 
TCOON,ioos:station:TCOON:043:1,2013-12-15T21:30:00Z,27.8838,-97.5332,0.0,11.2,1111122 
TCOON,ioos:station:TCOON:043:1,2013-12-15T23:00:00Z,27.8838,-97.5332,0.0,12.1,1111122 
TCOON,ioos:station:TCOON:043:1,2013-12-15T23:30:00Z,27.8838,-97.5332,0.0,12.0,1111122 
TCOON,ioos:station:TCOON:043:1,2013-12-16T00:00:00Z,27.8838,-97.5332,0.0,12.6,1111122 
TCOON,ioos:station:TCOON:043:1,2013-12-16T02:00:00Z,27.8838,-97.5332,0.0,12.3,1111122 
TCOON,ioos:station:TCOON:043:1,2013-12-16T02:30:00Z,27.8838,-97.5332,0.0,11.1,1111122 
TCOON,ioos:station:TCOON:043:1,2013-12-16T03:00:00Z,27.8838,-97.5332,0.0,12.9,1111122 
TCOON,ioos:station:TCOON:043:1,2013-12-16T03:30:00Z,27.8838,-97.5332,0.0,11.9,1111122 
TCOON,ioos:station:TCOON:043:1,2013-12-16T05:30:00Z,27.8838,-97.5332,0.0,12.9,1111122 
TCOON,ioos:station:TCOON:043:1,2013-12-16T06:00:00Z,27.8838,-97.5332,0.0,12.9,1111122 
TCOON,ioos:station:TCOON:043:1,2013-12-16T07:00:00Z,27.8838,-97.5332,0.0,12.4,1111122 
TCOON,ioos:station:TCOON:043:1,2013-12-16T08:30:00Z,27.8838,-97.5332,0.0,11.7,1111122 
TCOON,ioos:station:TCOON:043:1,2013-12-16T09:30:00Z,27.8838,-97.5332,0.0,12.7,1111122 
TCOON,ioos:station:TCOON:043:1,2013-12-16T10:00:00Z,27.8838,-97.5332,0.0,13.1,1111122 
TCOON,ioos:station:TCOON:043:1,2013-12-16T11:00:00Z,27.8838,-97.5332,0.0,12.3,1111122 
TCOON,ioos:station:TCOON:043:1,2013-12-16T13:00:00Z,27.8838,-97.5332,0.0,12.2,1111122 
TCOON,ioos:station:TCOON:043:1,2013-12-16T13:30:00Z,27.8838,-97.5332,0.0,10.4,1111122 
TCOON,ioos:station:TCOON:043:1,2013-12-16T14:00:00Z,27.8838,-97.5332,0.0,10.9,1111122 
TCOON,ioos:station:TCOON:043:1,2013-12-16T15:30:00Z,27.8838,-97.5332,0.0,12.1,1111122 
TCOON,ioos:station:TCOON:043:1,2013-12-16T16:00:00Z,27.8838,-97.5332,0.0,10.7,1111122 
TCOON,ioos:station:TCOON:043:1,2013-12-16T16:30:00Z,27.8838,-97.5332,0.0,12.3,1111122 
TCOON,ioos:station:TCOON:043:1,2013-12-16T17:00:00Z,27.8838,-97.5332,0.0,10.8,1111122 
TCOON,ioos:station:TCOON:043:1,2013-12-16T19:00:00Z,27.8838,-97.5332,0.0,12.9,1111122 
TCOON,ioos:station:TCOON:043:1,2013-12-16T19:30:00Z,27.8838,-97.5332,0.0,11.7,1111122 
TCOON,ioos:station:TCOON:043:1,2013-12-16T20:00:00Z,27.8838,-97.5332,0.0,12.0,1111122 
TCOON,ioos:station:TCOON:043:1,2013-12-16T20:30:00Z,27.8838,-97.5332,0.0,12.4,1111122 
TCOON,ioos:station:TCOON:043:1,2013-12-16T21:00:00Z,27.8838,-97.5332,0.0,12.1,1111122 
TCOON,ioos:station:TCOON:043:1,2013-12-16T21:30:00Z,27.8838,-97.5332,0.0,11.9,1111122 
TCOON,ioos:station:TCOON:043:1,2013-12-16T22:30:00Z,27.8838,-97.5332,0.0,11.2,1111122 
TCOON,ioos:station:TCOON:043:1,2013-12-16T23:00:00Z,27.8838,-97.5332,0.0,11.9,1111122 
TCOON,ioos:station:TCOON:043:1,2013-12-16T23:30:00Z,27.8838,-97.5332,0.0,12.5,1111122 
TCOON,ioos:station:TCOON:043:1,2013-12-17T01:30:00Z,27.8838,-97.5332,0.0,12.6,1111122 
TCOON,ioos:station:TCOON:043:1,2013-12-17T02:30:00Z,27.8838,-97.5332,0.0,11.5,1111122 
TCOON,ioos:station:TCOON:043:1,2013-12-17T03:00:00Z,27.8838,-97.5332,0.0,11.7,1111122 
TCOON,ioos:station:TCOON:043:1,2013-12-17T04:00:00Z,27.8838,-97.5332,0.0,11.9,1111122 
TCOON,ioos:station:TCOON:043:1,2013-12-17T04:30:00Z,27.8838,-97.5332,0.0,12.2,1111122 
TCOON,ioos:station:TCOON:043:1,2013-12-17T06:00:00Z,27.8838,-97.5332,0.0,12.2,1111122 
TCOON,ioos:station:TCOON:043:1,2013-12-17T06:30:00Z,27.8838,-97.5332,0.0,13.2,1111122 
TCOON,ioos:station:TCOON:043:1,2013-12-17T08:00:00Z,27.8838,-97.5332,0.0,13.5,1111122 
TCOON,ioos:station:TCOON:043:1,2013-12-17T09:30:00Z,27.8838,-97.5332,0.0,22.6,1111122 
TCOON,ioos:station:TCOON:043:1,2013-12-17T10:00:00Z,27.8838,-97.5332,0.0,22.9,1111122 
TCOON,ioos:station:TCOON:043:1,2013-12-17T11:30:00Z,27.8838,-97.5332,0.0,23.6,1111122 
TCOON,ioos:station:TCOON:043:1,2013-12-17T12:00:00Z,27.8838,-97.5332,0.0,23.3,1111122 
TCOON,ioos:station:TCOON:043:1,2013-12-17T16:00:00Z,27.8838,-97.5332,0.0,22.2,1111122 
TCOON,ioos:station:TCOON:043:1,2013-12-17T17:00:00Z,27.8838,-97.5332,0.0,19.1,1111122 
TCOON,ioos:station:TCOON:043:1,2013-12-17T17:30:00Z,27.8838,-97.5332,0.0,16.8,1111122 
TCOON,ioos:station:TCOON:043:1,2013-12-17T18:30:00Z,27.8838,-97.5332,0.0,15.8,1111122 
TCOON,ioos:station:TCOON:043:1,2013-12-17T19:00:00Z,27.8838,-97.5332,0.0,15.1,1111122 
TCOON,ioos:station:TCOON:043:1,2013-12-17T20:30:00Z,27.8838,-97.5332,0.0,13.7,1111122 
TCOON,ioos:station:TCOON:043:1,2013-12-17T21:00:00Z,27.8838,-97.5332,0.0,13.2,1111122 
TCOON,ioos:station:TCOON:043:1,2013-12-17T22:00:00Z,27.8838,-97.5332,0.0,13.5,1111122 
TCOON,ioos:station:TCOON:043:1,2013-12-17T22:30:00Z,27.8838,-97.5332,0.0,12.5,1111122 
TCOON,ioos:station:TCOON:043:1,2013-12-18T00:00:00Z,27.8838,-97.5332,0.0,12.6,1111122 
TCOON,ioos:station:TCOON:043:1,2013-12-18T00:30:00Z,27.8838,-97.5332,0.0,12.9,1111122 
TCOON,ioos:station:TCOON:043:1,2013-12-18T01:00:00Z,27.8838,-97.5332,0.0,14.0,1111122 
TCOON,ioos:station:TCOON:043:1,2013-12-18T01:30:00Z,27.8838,-97.5332,0.0,13.0,1111122 
TCOON,ioos:station:TCOON:043:1,2013-12-18T03:30:00Z,27.8838,-97.5332,0.0,15.0,1111122 
TCOON,ioos:station:TCOON:043:1,2013-12-18T04:00:00Z,27.8838,-97.5332,0.0,15.5,1111122 
TCOON,ioos:station:TCOON:043:1,2013-12-18T05:30:00Z,27.8838,-97.5332,0.0,18.4,1111122 
TCOON,ioos:station:TCOON:043:1,2013-12-18T06:00:00Z,27.8838,-97.5332,0.0,19.7,1111122 
TCOON,ioos:station:TCOON:043:1,2013-12-18T06:30:00Z,27.8838,-97.5332,0.0,20.5,1111122 
TCOON,ioos:station:TCOON:043:1,2013-12-18T07:30:00Z,27.8838,-97.5332,0.0,24.0,1111122 
TCOON,ioos:station:TCOON:043:1,2013-12-18T10:30:00Z,27.8838,-97.5332,0.0,26.1,1111122 
TCOON,ioos:station:TCOON:043:1,2013-12-18T11:00:00Z,27.8838,-97.5332,0.0,26.2,1111122 
TCOON,ioos:station:TCOON:043:1,2013-12-18T12:00:00Z,27.8838,-97.5332,0.0,23.8,1111122 
TCOON,ioos:station:TCOON:043:1,2013-12-18T12:30:00Z,27.8838,-97.5332,0.0,23.6,1111122 
TCOON,ioos:station:TCOON:043:1,2013-12-18T14:00:00Z,27.8838,-97.5332,0.0,21.2,1111122 
TCOON,ioos:station:TCOON:043:1,2013-12-18T14:30:00Z,27.8838,-97.5332,0.0,21.6,1111122 
TCOON,ioos:station:TCOON:043:1,2013-12-18T15:00:00Z,27.8838,-97.5332,0.0,23.3,1111122 
TCOON,ioos:station:TCOON:043:1,2013-12-18T16:00:00Z,27.8838,-97.5332,0.0,22.9,1111122 
TCOON,ioos:station:TCOON:043:1,2013-12-18T17:00:00Z,27.8838,-97.5332,0.0,21.8,1111122 
TCOON,ioos:station:TCOON:043:1,2013-12-18T17:30:00Z,27.8838,-97.5332,0.0,22.9,1111122 
TCOON,ioos:station:TCOON:043:1,2013-12-18T19:00:00Z,27.8838,-97.5332,0.0,22.3,1111122 
TCOON,ioos:station:TCOON:043:1,2013-12-18T20:00:00Z,27.8838,-97.5332,0.0,23.4,1111122 
TCOON,ioos:station:TCOON:043:1,2013-12-18T20:30:00Z,27.8838,-97.5332,0.0,22.0,1111122 
TCOON,ioos:station:TCOON:043:1,2013-12-18T22:30:00Z,27.8838,-97.5332,0.0,22.7,1111122 
TCOON,ioos:station:TCOON:043:1,2013-12-18T23:30:00Z,27.8838,-97.5332,0.0,25.0,1111122 
TCOON,ioos:station:TCOON:043:1,2013-12-19T01:00:00Z,27.8838,-97.5332,0.0,24.5,1111122 
TCOON,ioos:station:TCOON:043:1,2013-12-19T01:30:00Z,27.8838,-97.5332,0.0,23.8,1111122 
TCOON,ioos:station:TCOON:043:1,2013-12-19T03:00:00Z,27.8838,-97.5332,0.0,24.3,1111122 
TCOON,ioos:station:TCOON:043:1,2013-12-19T03:30:00Z,27.8838,-97.5332,0.0,25.3,1111122 
TCOON,ioos:station:TCOON:043:1,2013-12-19T06:30:00Z,27.8838,-97.5332,0.0,25.8,1111122 
TCOON,ioos:station:TCOON:043:1,2013-12-19T07:30:00Z,27.8838,-97.5332,0.0,26.5,1111122 
TCOON,ioos:station:TCOON:043:1,2013-12-19T08:30:00Z,27.8838,-97.5332,0.0,27.6,1111122 
TCOON,ioos:station:TCOON:043:1,2013-12-19T09:30:00Z,27.8838,-97.5332,0.0,28.9,1111122 
TCOON,ioos:station:TCOON:043:1,2013-12-19T10:30:00Z,27.8838,-97.5332,0.0,28.3,1111122 
TCOON,ioos:station:TCOON:043:1,2013-12-19T12:00:00Z,27.8838,-97.5332,0.0,27.6,1111122 
TCOON,ioos:station:TCOON:043:1,2013-12-19T12:30:00Z,27.8838,-97.5332,0.0,28.7,1111122 
TCOON,ioos:station:TCOON:043:1,2013-12-19T13:00:00Z,27.8838,-97.5332,0.0,27.8,1111122 
TCOON,ioos:station:TCOON:043:1,2013-12-19T13:30:00Z,27.8838,-97.5332,0.0,24.5,1111122 
TCOON,ioos:station:TCOON:043:1,2013-12-19T15:30:00Z,27.8838,-97.5332,0.0,26.0,1111122 
TCOON,ioos:station:TCOON:043:1,2013-12-19T20:00:00Z,27.8838,-97.5332,0.0,24.2,1111122 
TCOON,ioos:station:TCOON:043:1,2013-12-19T21:00:00Z,27.8838,-97.5332,0.0,27.9,1111122 
TCOON,ioos:station:TCOON:043:1,2013-12-19T21:30:00Z,27.8838,-97.5332,0.0,25.5,1111122 
TCOON,ioos:station:TCOON:043:1,2013-12-19T22:00:00Z,27.8838,-97.5332,0.0,26.5,1111122 
TCOON,ioos:station:TCOON:043:1,2013-12-19T22:30:00Z,27.8838,-97.5332,0.0,27.7,1111122 
TCOON,ioos:station:TCOON:043:1,2013-12-19T23:00:00Z,27.8838,-97.5332,0.0,28.2,1111122 
TCOON,ioos:station:TCOON:043:1,2013-12-19T23:30:00Z,27.8838,-97.5332,0.0,28.0,1111122 
TCOON,ioos:station:TCOON:043:1,2013-12-20T01:00:00Z,27.8838,-97.5332,0.0,27.4,1111122 
TCOON,ioos:station:TCOON:043:1,2013-12-20T02:30:00Z,27.8838,-97.5332,0.0,28.3,1111122 
TCOON,ioos:station:TCOON:043:1,2013-12-20T05:30:00Z,27.8838,-97.5332,0.0,27.3,1111122 
TCOON,ioos:station:TCOON:043:1,2013-12-20T07:00:00Z,27.8838,-97.5332,0.0,28.4,1111122 
TCOON,ioos:station:TCOON:043:1,2013-12-20T07:30:00Z,27.8838,-97.5332,0.0,28.5,1111122 
TCOON,ioos:station:TCOON:043:1,2013-12-20T09:00:00Z,27.8838,-97.5332,0.0,28.5,1111122 
TCOON,ioos:station:TCOON:043:1,2013-12-20T09:30:00Z,27.8838,-97.5332,0.0,28.5,1111122 
TCOON,ioos:station:TCOON:043:1,2013-12-20T11:00:00Z,27.8838,-97.5332,0.0,27.0,1111122 
TCOON,ioos:station:TCOON:043:1,2013-12-20T11:30:00Z,27.8838,-97.5332,0.0,28.4,1111122 
TCOON,ioos:station:TCOON:043:1,2013-12-20T13:00:00Z,27.8838,-97.5332,0.0,28.4,1111122 
TCOON,ioos:station:TCOON:043:1,2013-12-20T14:00:00Z,27.8838,-97.5332,0.0,28.2,1111122 
TCOON,ioos:station:TCOON:043:1,2013-12-20T15:00:00Z,27.8838,-97.5332,0.0,24.4,1111122 
TCOON,ioos:station:TCOON:043:1,2013-12-20T16:00:00Z,27.8838,-97.5332,0.0,24.1,1111122 
TCOON,ioos:station:TCOON:043:1,2013-12-20T17:00:00Z,27.8838,-97.5332,0.0,24.9,1111122 
TCOON,ioos:station:TCOON:043:1,2013-12-20T17:30:00Z,27.8838,-97.5332,0.0,23.0,1111122 
TCOON,ioos:station:TCOON:043:1,2013-12-20T18:30:00Z,27.8838,-97.5332,0.0,24.7,1111122 
TCOON,ioos:station:TCOON:043:1,2013-12-20T19:30:00Z,27.8838,-97.5332,0.0,26.7,1111122 
TCOON,ioos:station:TCOON:043:1,2013-12-20T20:30:00Z,27.8838,-97.5332,0.0,26.6,1111122 
TCOON,ioos:station:TCOON:043:1,2013-12-20T21:00:00Z,27.8838,-97.5332,0.0,27.5,1111122 
TCOON,ioos:station:TCOON:043:1,2013-12-20T21:30:00Z,27.8838,-97.5332,0.0,25.9,1111122 
TCOON,ioos:station:TCOON:043:1,2013-12-20T22:00:00Z,27.8838,-97.5332,0.0,27.6,1111122 
TCOON,ioos:station:TCOON:043:1,2013-12-20T23:30:00Z,27.8838,-97.5332,0.0,27.8,1111122 
TCOON,ioos:station:TCOON:043:1,2013-12-21T00:00:00Z,27.8838,-97.5332,0.0,28.3,1111122 
TCOON,ioos:station:TCOON:043:1,2013-12-21T00:30:00Z,27.8838,-97.5332,0.0,28.3,1111122 
TCOON,ioos:station:TCOON:043:1,2013-12-21T02:00:00Z,27.8838,-97.5332,0.0,28.4,1111122 
TCOON,ioos:station:TCOON:043:1,2013-12-21T03:30:00Z,27.8838,-97.5332,0.0,28.3,1111122 
TCOON,ioos:station:TCOON:043:1,2013-12-21T04:30:00Z,27.8838,-97.5332,0.0,28.3,1111122 
TCOON,ioos:station:TCOON:043:1,2013-12-21T06:30:00Z,27.8838,-97.5332,0.0,28.1,1111122 
TCOON,ioos:station:TCOON:043:1,2013-12-21T07:00:00Z,27.8838,-97.5332,0.0,26.2,1111122 
TCOON,ioos:station:TCOON:043:1,2013-12-21T07:30:00Z,27.8838,-97.5332,0.0,26.6,1111122 
TCOON,ioos:station:TCOON:043:1,2013-12-21T08:00:00Z,27.8838,-97.5332,0.0,26.7,1111122 
TCOON,ioos:station:TCOON:043:1,2013-12-21T08:30:00Z,27.8838,-97.5332,0.0,26.7,1111122 
TCOON,ioos:station:TCOON:043:1,2013-12-21T09:30:00Z,27.8838,-97.5332,0.0,26.8,1111122 
TCOON,ioos:station:TCOON:043:1,2013-12-21T11:00:00Z,27.8838,-97.5332,0.0,27.0,1111122 
TCOON,ioos:station:TCOON:043:1,2013-12-21T12:00:00Z,27.8838,-97.5332,0.0,28.7,1111122 
TCOON,ioos:station:TCOON:043:1,2013-12-21T12:30:00Z,27.8838,-97.5332,0.0,28.7,1111122 
TCOON,ioos:station:TCOON:043:1,2013-12-21T13:00:00Z,27.8838,-97.5332,0.0,28.6,1111122 
TCOON,ioos:station:TCOON:043:1,2013-12-21T13:30:00Z,27.8838,-97.5332,0.0,28.2,1111122 
TCOON,ioos:station:TCOON:043:1,2013-12-21T14:00:00Z,27.8838,-97.5332,0.0,28.3,1111122 
TCOON,ioos:station:TCOON:043:1,2013-12-21T14:30:00Z,27.8838,-97.5332,0.0,28.7,1111122 
TCOON,ioos:station:TCOON:043:1,2013-12-21T15:00:00Z,27.8838,-97.5332,0.0,28.8,1111122 
TCOON,ioos:station:TCOON:043:1,2013-12-21T15:30:00Z,27.8838,-97.5332,0.0,27.9,1111122 
TCOON,ioos:station:TCOON:043:1,2013-12-21T17:30:00Z,27.8838,-97.5332,0.0,27.6,1111122 
TCOON,ioos:station:TCOON:043:1,2013-12-21T19:00:00Z,27.8838,-97.5332,0.0,28.4,1111122 
TCOON,ioos:station:TCOON:043:1,2013-12-21T19:30:00Z,27.8838,-97.5332,0.0,28.5,1111122 
TCOON,ioos:station:TCOON:043:1,2013-12-21T20:30:00Z,27.8838,-97.5332,0.0,26.7,1111122 
TCOON,ioos:station:TCOON:043:1,2013-12-21T21:30:00Z,27.8838,-97.5332,0.0,25.2,1111122 
TCOON,ioos:station:TCOON:043:1,2013-12-21T22:30:00Z,27.8838,-97.5332,0.0,28.5,1111122 
TCOON,ioos:station:TCOON:043:1,2013-12-21T23:00:00Z,27.8838,-97.5332,0.0,28.6,1111122 
TCOON,ioos:station:TCOON:043:1,2013-12-21T23:30:00Z,27.8838,-97.5332,0.0,28.7,1111122 
TCOON,ioos:station:TCOON:043:1,2013-12-22T05:00:00Z,27.8838,-97.5332,0.0,28.1,1111122 
TCOON,ioos:station:TCOON:043:1,2013-12-22T06:00:00Z,27.8838,-97.5332,0.0,28.2,1111122 
TCOON,ioos:station:TCOON:043:1,2013-12-22T06:30:00Z,27.8838,-97.5332,0.0,28.3,1111122 
TCOON,ioos:station:TCOON:043:1,2013-12-22T08:00:00Z,27.8838,-97.5332,0.0,28.5,1111122 
TCOON,ioos:station:TCOON:043:1,2013-12-22T09:00:00Z,27.8838,-97.5332,0.0,28.5,1111122 
TCOON,ioos:station:TCOON:043:1,2013-12-22T12:00:00Z,27.8838,-97.5332,0.0,28.5,1111122 
TCOON,ioos:station:TCOON:043:1,2013-12-22T13:00:00Z,27.8838,-97.5332,0.0,27.6,1111122 
TCOON,ioos:station:TCOON:043:1,2013-12-22T13:30:00Z,27.8838,-97.5332,0.0,28.2,1111122 
TCOON,ioos:station:TCOON:043:1,2013-12-22T14:00:00Z,27.8838,-97.5332,0.0,27.6,1111122 
TCOON,ioos:station:TCOON:043:1,2013-12-22T14:30:00Z,27.8838,-97.5332,0.0,27.4,1111122 
TCOON,ioos:station:TCOON:043:1,2013-12-22T15:00:00Z,27.8838,-97.5332,0.0,26.6,1111122 
TCOON,ioos:station:TCOON:043:1,2013-12-22T15:30:00Z,27.8838,-97.5332,0.0,26.5,1111122 
TCOON,ioos:station:TCOON:043:1,2013-12-22T16:00:00Z,27.8838,-97.5332,0.0,26.9,1111122 
TCOON,ioos:station:TCOON:043:1,2013-12-22T16:30:00Z,27.8838,-97.5332,0.0,27.6,1111122 
TCOON,ioos:station:TCOON:043:1,2013-12-22T17:00:00Z,27.8838,-97.5332,0.0,27.8,1111122 
TCOON,ioos:station:TCOON:043:1,2013-12-22T19:00:00Z,27.8838,-97.5332,0.0,27.8,1111122 
TCOON,ioos:station:TCOON:043:1,2013-12-22T20:00:00Z,27.8838,-97.5332,0.0,27.5,1111122 
TCOON,ioos:station:TCOON:043:1,2013-12-22T21:30:00Z,27.8838,-97.5332,0.0,28.1,1111122 